GFSGBSN_prec_radar_021.txt.gz
Reflectivity
-10 7 7 -20 -20 -20 -20 -20 -20 -20 -20 -20 -20 -20 -20 -20 -20 -20 -20 -20 -3 10 -20 -20 -20 -20 -20 -20 -20 -20 -20 -20 -20 -20 -20 -20 -20 -20 -20 -20 -20 -20 -20 -20 -11 -5 -19
-20 -20 3 9 -20 -20 -20 -20 -20 -20 -20 -20 -20 -20 -20 -20 -6 -20 -20 -20 3 -15 -20 -20 -20 -20 -20 -20 -20 -20 -20 -20 -20 -20 -20 -20 -20 -20 -20 -20 -17 -20 -20 -20 -20 -18 18
-20 -20 -20 1 4 -20 -20 -20 -20 -20 -20 -20 -20 -20 -20 -19 -16 -20 -20 -20 -20 -20 -20 -20 -20 -20 -20 -20 -20 -20 -20 -20 -20 -19 -20 -20 -20 -20 -20 -20 -19 -20 -15 0 -20 -0 -20
-20 -20 -20 -20 -0 -12 -20 -20 -20 -20 -20 -20 -20 -20 -20 -20 -15 -20 -12 -20 -20 -20 -20 -20 -20 -20 -20 -20 -20 -20 -20 -20 -20 -18 -20 -20 -20 -20 -20 -17 -20 -18 -6 -8 -19 -20 12
-20 -20 -20 -20 -18 6 -7 -20 -20 -20 -20 -20 -20 -20 -20 -20 -20 -20 -20 -10 -20 -20 -20 -20 -20 -20 -20 -20 -20 -20 -20 -20 -20 -20 -20 -20 -19 -20 -19 -18 -14 -1 -8 6 -20 -20 -20
6 -20 -14 -20 -20 -6 2 -20 -20 -20 -20 -20 -20 -20 -20 -20 -6 -20 -20 -20 -20 -20 -20 -20 -20 -20 -20 -20 -20 -20 -20 -20 -20 -20 -20 -19 -17 -8 -1 -20 -1 -15 -3 -20 -20 -20 -20
-20 -2 -20 6 -20 -8 -9 -14 -20 -20 -20 -20 -20 -20 -20 -20 -20 -20 -18 -20 -20 -20 -20 -20 -20 -20 -20 -20 -20 -20 -20 -20 -20 -20 -4 -20 -6 -7 8 5 1 -4 5 -20 -20 -20 -20
-20 -20 -20 -20 -20 -5 -16 7 -20 -20 -20 -20 -20 -20 -20 -9 -20 -20 -20 -20 -20 -20 -20 -20 -20 -20 -20 -20 -20 -20 -20 -20 -13 2 -9 5 -9 12 -4 -15 -20 -20 -12 -9 -20 -20 -20
-20 3 -20 -20 -20 -20 11 -18 -18 -20 -20 -20 -20 -20 -20 -20 -16 -4 -20 -20 -20 -20 -20 -20 -20 -20 -20 -20 -20 -20 -20 -0 3 2 11 -6 15 -20 -7 -16 -12 -20 -13 8 -20 -20 -20
3 -3 -20 -20 -20 -20 -18 7 6 -20 -20 -20 -20 -20 -20 -20 -20 -20 -20 -20 -20 -20 -20 -20 -20 -20 -20 -20 -20 -20 -20 -15 6 10 7 9 7 -16 -20 -20 -8 -12 -16 -3 -20 -20 -20
10 4 -0 -20 -20 -20 -20 0 14 -20 -20 -20 -20 -20 -20 -20 -20 -20 -20 -20 -20 -20 -12 -20 -20 -20 -20 -20 -20 -20 -20 -20 -12 -20 -19 10 -17 -10 -1 17 -20 25 -4 -20 -20 -7 30
-7 11 -8 -20 -20 -20 -20 7 16 -19 -20 -20 -20 -20 -20 -3 -20 -20 -20 -20 -20 -12 -14 -20 -20 -20 -20 -20 -20 -20 -20 -20 -18 -20 10 23 -20 -20 -0 -20 -20 -20 -20 -20 -20 -20 -20
14 12 7 -0 -20 -20 -20 -20 3 -1 -20 -20 -20 -20 -13 -20 -20 -20 -20 -20 -20 -14 -20 -20 -20 -20 -20 -20 -20 -20 -20 -20 -20 -20 -20 -16 -20 -13 -20 -20 -20 -20 -20 -16 0 11 -20
16 16 9 10 -20 -20 -20 -1 -4 12 -20 -20 -20 -20 -12 -20 -20 -20 -20 -20 -15 -20 -20 -20 -20 -20 -20 -20 -20 -20 -20 -20 -20 -9 -2 -18 -9 -20 -20 -20 -18 -20 -19 -2 -14 -20 -20
20 22 17 -7 -20 -20 -20 -20 -10 24 -20 -20 -20 7 -19 -20 -20 -20 -20 -12 -20 -20 -20 -20 -20 -20 -20 -20 -20 -20 -20 -20 -20 -20 21 7 21 -15 -20 -20 -20 -20 -20 -20 -20 -20 -20
16 21 17 14 -4 -20 -20 -11 4 23 -9 -20 -20 -7 -20 -20 -20 -20 -20 -20 -20 -20 -20 -20 -20 -20 -20 -20 -20 -20 -20 -20 -20 -20 -20 -20 -20 -20 -20 -20 -20 -20 -20 -20 -20 -20 -20
11 10 15 16 19 -20 -20 -20 17 23 -3 -20 -20 -20 -20 -20 -20 -20 -20 -20 -20 -20 -20 -20 -20 -20 -20 -20 -20 -20 -20 -20 -20 -20 -20 -20 -20 -20 -20 -20 -20 -20 -20 -20 -20 -20 -20
17 16 12 14 15 24 -20 -20 24 25 -12 -20 -2 -20 -20 -20 -20 -20 -20 -20 -20 -20 -20 -20 -20 -20 -20 -20 -20 -20 -20 -20 -20 -20 -20 -20 -20 -20 -20 -20 -20 -20 -20 -20 -20 -20 -20
-20 25 18 18 15 -20 -8 5 26 29 -17 -20 9 -4 10 -20 4 5 -20 -20 -20 -20 -20 -20 -20 -20 -20 -20 -20 -20 -20 -20 -20 -20 -20 -20 -20 -20 -20 -20 -20 -20 -20 -20 -20 -20 -20
1 -11 9 16 11 -20 -20 18 28 31 -17 -20 -20 -2 15 -6 -20 -20 -20 -20 -20 -20 -20 -20 -20 -20 -20 -20 -20 -20 -20 -20 -20 -20 -20 -20 -20 -20 -20 -1 -20 -20 -20 -20 -20 -20 -20
0 39 20 16 10 10 9 16 35 30 -2 -20 -20 -17 -20 -18 -20 -20 -20 -20 -20 -20 -20 -20 -20 -20 -20 -20 -20 -20 -20 -20 -20 -20 -20 -20 -20 -20 -20 -20 -20 -20 -20 -20 -20 -20 -20
29 17 16 -11 -20 12 14 27 34 36 -9 -20 -20 -20 -20 -20 -20 -20 -20 -20 -20 -20 -20 -20 -20 -20 -20 -20 -20 -20 -20 -20 -20 -20 -20 -20 -20 -20 -20 -20 -20 -20 -20 -20 -20 -20 -20
-14 -3 -9 -3 -20 12 12 14 25 31 -11 -17 -20 -20 -20 -20 -20 -20 -20 -20 -20 -20 -20 -20 -20 -20 -20 -20 -20 -20 -20 -20 -20 -20 -20 -20 -20 -20 -20 -20 -20 -20 -20 -20 -20 -20 -20
-3 -7 -20 4 21 16 26 31 35 10 -20 -20 -20 -0 13 4 -20 -20 -20 -20 -20 -20 -20 -20 -20 -20 -20 -20 -20 -20 -20 -20 -20 -20 -20 -20 -20 -20 -20 -20 -20 -20 -20 -20 -20 -20 -20
-20 -20 -20 5 10 16 32 29 27 5 -20 -15 16 2 7 22 -20 -20 -20 -20 -20 -20 -20 -20 -20 -20 -20 -20 -20 -20 -20 -20 -20 -20 -20 -20 -20 -20 -16 -20 -20 -20 -20 -20 -20 -20 -20
-20 -20 -20 6 21 23 27 25 16 -9 -20 14 21 -20 9 -20 -20 -20 -20 -20 -20 -20 -20 -20 -20 -20 -20 -20 -20 -20 -20 -20 -20 -20 -20 -20 -20 -20 -20 -20 -20 -20 -20 -20 -20 -20 -20
16 -20 6 16 28 25 27 31 16 -20 -20 20 22 -20 -12 -20 -20 -20 -20 -20 -20 -20 -20 -20 -20 -20 -20 -9 8 -20 -20 -20 -20 -20 -20 -20 -20 -4 -20 -9 -20 -20 -20 -20 -20 -20 -20
2 18 27 29 34 30 21 24 5 -20 -20 27 -20 -20 -20 -20 -20 -20 -20 -20 -20 -20 -20 -20 -20 -20 -20 -20 -6 -20 -8 -20 -20 -20 -20 -20 -20 -20 -20 -9 -20 -20 -20 -20 -20 -20 -20
25 23 18 35 32 17 31 27 2 -15 1 28 -10 -20 -20 -20 -17 -20 -20 -20 -20 -20 -20 -20 -20 -20 -20 -20 -20 -20 2 5 -20 -20 -20 -20 -20 -20 -20 -20 -20 -20 -20 -20 -20 -20 -20

GFSGBSN_prec_radar_024.txt.gz
Reflectivity
-20 -20 -3 9 13 -8 -20 -20 -20 -20 -20 -20 -20 -20 -20 -20 -20 1 -5 -20 -20 -20 -20 -20 -20 -20 -20 -20 -20 -20 -20 -20 -20 -20 -20 -20 -20 -20 -20 -20 -20 -20 -19 -20 -20 -20 14
-20 -20 -20 -20 5 5 -9 -20 -20 -20 -20 -20 -20 -20 -20 -20 -20 10 -10 -20 -20 -15 -20 -20 -20 -20 -20 -20 -20 -20 -20 -20 -20 -20 -20 -20 -20 -20 -18 -20 -20 -20 -20 -20 -20 -5 -1
-20 -20 -20 -20 -20 -15 5 -14 -20 -20 -20 -20 -20 -20 -20 -20 -20 5 3 -20 -20 -20 -20 -20 -20 -20 -20 -20 -20 -20 -20 -20 -20 -20 -20 -20 -20 -20 -20 -20 5 -20 -20 -20 -20 -14 -6
-20 -20 -20 -20 -20 -20 -0 9 -20 -20 -20 -20 -20 -20 -20 -20 -20 -20 -18 -20 -20 -20 -20 -20 -20 -20 -20 -20 -20 -20 -20 -20 -20 -20 -20 -20 -20 -20 -20 -18 -20 -20 -20 -16 -4 -20 -20
-20 -20 -20 -20 -20 -20 -19 1 -1 -20 -20 -20 -20 -20 -20 -20 -20 -20 -20 -20 -20 -20 -20 -20 -20 -20 -20 -20 -20 -20 -20 -20 -20 -20 -20 -20 -20 -20 -20 -14 -0 -20 5 -7 -20 -20 -20
-9 -20 -20 -20 -20 -20 -20 -20 -19 -20 -20 -20 -20 -20 -20 -20 -20 -20 -20 -20 -20 -20 -20 -20 -20 -20 -20 -20 -20 -20 -20 -20 -20 -20 -20 -20 -20 -20 -8 -5 2 12 -10 1 -20 -20 -11
-20 -20 -20 -20 -20 -20 -20 -20 -20 2 -20 -20 -20 -20 -20 -20 -20 -20 -20 -20 -20 -20 -20 -20 -20 -20 -20 -20 -20 -20 -20 -20 -16 -20 17 -20 -20 -20 -15 12 3 -5 -20 10 -4 -20 -20
5 -6 -20 -20 -20 -20 -11 -20 -20 -11 -9 -20 -20 -20 -20 -20 -17 -14 -20 -20 -20 -20 -20 -20 -20 -20 -20 -20 -20 -20 -20 -20 -20 -20 7 -20 -18 3 -6 -18 -13 13 -1 7 -20 -20 -20
-20 4 -20 -20 -20 -20 -20 -20 -19 -2 10 -20 -20 -20 -20 -20 -3 -18 -20 -20 -20 -20 -20 -20 -20 -20 -20 -20 -20 -20 -20 -20 -14 -20 -15 -19 6 -10 -19 -20 -20 -10 10 -14 -11 -20 -20
-9 -1 4 -16 -20 -20 -20 -20 -19 2 15 -19 -20 -20 -20 -20 -20 -20 -20 -20 -20 -20 -20 -20 -20 -20 -20 -20 -20 -20 -20 7 10 -8 3 -8 11 -20 -1 -8 8 2 -18 -19 -7 -11 -20
3 4 -7 1 3 -20 -17 -8 -20 -18 3 -1 -20 -20 -20 -20 -20 -20 -20 -20 -20 -20 -12 -20 -20 -20 -20 -20 -20 -20 -20 12 -19 -9 -11 14 -2 -19 -20 -20 -8 12 -15 -20 -20 -20 -20
3 7 1 -11 11 -16 -20 -20 -1 -20 2 15 -20 -20 -20 3 -20 -20 -20 -20 -20 -13 -20 -20 -20 -20 -20 -20 -20 -20 -20 -20 -13 -0 -20 -6 -20 17 18 9 -17 -19 -20 -20 -20 -20 -19
-20 5 10 -20 2 7 -20 -20 -20 -20 -1 23 -20 -20 -20 -20 -20 -20 -20 -10 -20 -20 -20 -20 -20 -20 -20 -20 -20 -20 -20 -20 -20 3 -20 -20 -20 -17 -18 -20 -20 -20 -20 -20 4 -20 -20
8 12 9 -14 6 13 -20 -20 -20 -20 -19 24 -20 -20 -19 -20 -20 -20 -3 22 -18 -20 -20 -20 -20 -20 -20 -20 -20 -20 -20 -20 -20 -20 -19 -20 -20 -19 -20 -20 -11 6 -20 -20 24 12 -2
-20 3 18 15 15 -5 -20 -20 -20 -20 -20 26 -1 4 -9 -20 -20 -8 24 18 -20 -20 -20 -20 -20 -20 -20 -20 -20 -20 -20 -20 -20 -20 -20 -18 -10 33 -20 -20 -20 -19 -20 -15 7 -19 -20
10 9 27 -10 12 11 -20 -20 -20 -20 -10 27 -15 1 -20 -20 -20 -10 22 -20 -20 -20 -20 -20 -20 -20 -20 -20 -20 -20 -20 -20 -20 -20 -15 21 36 17 -10 -20 -20 -20 -20 -20 -20 -20 -20
19 24 20 13 20 17 -11 18 -20 -20 7 26 -20 -4 -20 -20 -20 8 -3 -20 -20 -20 -20 -20 -20 -20 -20 -20 -20 -20 -20 -20 -20 -14 -20 -16 12 3 -20 -20 -20 -20 -20 -20 -20 -20 -20
17 30 19 10 25 19 16 -11 -15 -4 11 29 -15 -10 -20 -20 -20 -20 3 -20 -20 -20 -20 -20 -20 -20 -20 -20 -20 -20 -20 -20 -20 -20 -20 -20 -20 -20 -20 -20 -20 -20 -20 -20 -20 -20 -20
26 16 9 16 26 22 8 -20 -20 6 20 17 -11 -13 2 -20 -20 -20 -20 -20 -20 -20 -20 -20 -20 -20 -20 -20 -20 -20 -20 -20 -20 -20 -20 -20 -20 -20 -20 -20 -20 -20 -20 -20 -20 -20 -20
15 14 -4 19 17 25 7 13 3 11 20 24 -16 4 17 -1 -20 -20 -20 -20 -20 -20 -20 -20 -20 -20 -20 -20 -20 -20 -20 -20 -20 -20 -20 -20 -20 -20 -20 -20 -20 -4 -20 -20 -20 -20 -20
-12 -7 -20 6 7 26 15 -0 -8 12 30 21 -7 -15 8 12 -20 -20 -20 -20 -20 -20 -20 -20 -20 -20 -20 -20 -20 -20 -20 -20 -20 -20 -20 -20 -20 -20 -20 -20 -3 -20 -20 -20 -20 -20 -20
11 -12 19 16 -20 17 7 17 14 14 35 26 -4 -20 -19 -20 -20 -20 -20 -20 -20 -20 -20 -20 -20 -20 -20 -20 -20 -20 -20 -20 -20 -20 -20 -20 -20 -20 -20 -20 -20 -20 -20 -20 -20 -20 -20
6 22 -19 -20 15 15 -13 -20 -3 19 38 23 -12 -20 -18 -20 -20 -14 -20 -20 -20 -20 -20 -20 -20 -20 -20 -20 -20 -20 -20 18 -20 -20 -20 -20 -20 -20 -20 -20 -20 -20 -20 -20 -20 -20 -20
7 12 -12 28 19 13 -20 -11 -6 20 31 7 -20 -20 24 7 -20 -20 -20 -20 -20 -20 10 -20 -20 -14 -19 -20 -20 -20 -20 -17 -20 -20 -20 -20 -20 -20 -20 -20 -20 -20 -20 -20 -20 -20 -20
21 11 17 33 20 14 -18 12 13 34 30 12 -14 14 26 17 -20 -20 -20 -20 -20 -20 24 -20 -20 -17 -20 -20 -20 -20 -20 -20 -20 -20 -20 -20 -20 -20 -20 -20 -20 -20 -20 -20 -20 -20 -20
21 13 17 18 9 11 -20 -19 24 33 23 -7 3 7 34 16 -18 -20 -20 -20 -20 -11 26 -17 -20 -20 -20 -20 -20 -20 -20 -20 -20 -20 -20 -20 -20 -20 -20 -20 -20 -20 -20 -20 -20 -20 -20
14 -14 -9 14 -20 -20 -20 -1 20 21 -6 9 15 29 31 13 -20 -20 -20 -20 -20 -5 15 -20 -20 -20 -20 -19 7 -20 -20 -20 -20 -20 -20 -20 -20 -20 -20 -20 -20 -20 -20 -20 -20 -20 -20
-11 -9 -20 -20 -20 -20 -20 -4 26 9 -19 11 -17 28 32 10 -2 -20 -20 -20 -20 23 -8 -20 -12 -20 -20 -20 -20 -20 6 -20 -20 -20 -20 -20 -20 -20 -20 -20 -20 -20 -20 -20 -20 -20 -20
-20 -20 -20 -20 -20 -20 -20 13 24 13 -8 9 39 11 33 41 2 -20 -12 -20 -20 15 -20 -20 -20 -20 -20 -20 -6 -6 -19 8 -20 -20 -20 -20 -20 -20 -20 -20 -20 -20 -20 -20 -20 -20 -20

GFSGBSN_prec_radar_027.txt.gz
Reflectivity
-20 -20 -20 -20 -20 -15 6 -5 -20 -20 -20 -20 -20 -20 -20 -20 -20 -20 -20 8 -20 -20 -20 -20 -20 -20 -20 -20 -20 -20 -20 -20 -20 -20 -20 -20 -20 -20 -20 -20 -20 -20 -20 11 15 -20 -20
-20 -20 -20 -20 -20 -20 -20 4 2 -20 -20 -20 -20 -20 -20 -20 -20 -20 -20 -20 -20 -20 -20 -20 -20 -20 -20 -20 -20 -20 -20 -20 -20 -20 -20 -20 -20 -20 -20 -20 -20 -20 -16 4 8 -20 -20
-20 -20 -20 -20 -20 -20 -20 -20 -10 9 -20 -20 -20 -20 -20 -20 -20 -20 -20 -20 -20 -20 -20 -20 -20 -20 -20 -20 -20 -20 -20 -20 -20 -20 -20 -20 -20 -20 -20 -20 -4 8 -20 -19 -20 -20 -20
8 -20 -20 -6 -20 -20 -20 -20 -19 0 -16 -20 -20 -20 -20 -20 -20 -20 -20 -20 -20 -20 -20 -20 -20 -20 -20 -20 -20 -20 -20 -20 -20 -20 -20 -20 -20 -20 -20 -20 -20 -20 -20 -20 -20 -18 -6
-20 -20 -17 -20 -5 -3 -20 -20 -20 -20 -9 -19 -20 -20 -20 -20 -20 -20 -20 -20 -20 -20 -20 -20 -20 -20 -20 -20 -20 -20 -20 -20 -20 -20 -20 -20 -20 -20 -20 -20 -20 -20 -20 -18 -3 -13 -20
-14 -20 -20 -20 -20 -19 -20 -20 -20 -18 8 10 -20 -20 -20 -20 -20 -20 -20 -20 -20 -20 -20 -20 -20 -20 -20 -20 -20 -20 -20 -20 -20 -20 -20 -20 -20 -20 -20 -20 -20 -3 13 1 -20 -20 -20
-20 -6 3 -20 -20 -20 -14 -20 -15 -20 5 0 -11 -20 -20 -20 -20 -20 -20 -20 -20 -20 -20 -20 -20 -20 -20 -20 -20 -20 -20 -20 -20 -20 -20 -20 -20 -20 -20 18 -20 -20 -20 -20 -20 -20 -20
-9 -20 -20 3 -20 -20 -20 -6 -20 -20 -20 -17 3 -20 -20 -20 -20 -20 -19 -20 -20 -20 -20 -20 -20 -20 -20 -20 -20 -20 -20 -20 -20 -20 -20 -20 -20 -20 -19 3 -2 -17 -14 -15 -20 -20 -20
10 0 -20 -20 3 -20 -20 -20 -10 -20 -20 3 6 -18 -20 -20 -20 -18 -20 -20 -20 -20 -20 -20 -20 -20 -20 -20 -20 -20 -20 -20 -20 -20 -20 -20 -20 -13 9 -20 -20 -7 -20 -8 -18 -20 -20
10 1 -17 -13 7 -20 -20 -20 -20 -20 -20 8 13 -13 -20 -20 -20 -20 -20 -20 -20 -20 -20 -20 -20 -20 -20 -20 -20 -20 -20 -20 -20 -20 -20 -20 -20 -20 -20 -20 -16 -19 -8 -20 -20 -14 -20
11 10 -18 -20 3 8 -2 -20 -16 -16 -20 9 8 -6 -20 -20 -20 -20 -20 -20 -20 -20 -20 -20 -20 -20 -20 -20 -20 -20 -20 -20 -20 -20 -20 -20 -5 -20 -20 -20 -20 -20 -20 -20 -20 -20 -2
2 9 6 -20 8 -15 7 -11 -20 -20 -19 -3 6 -1 -20 -13 -20 -20 -20 -20 -20 -10 -20 -20 -20 -20 -20 -20 -20 -20 -20 -20 -18 -20 -20 -20 -20 -20 -20 -20 -20 -20 -20 -20 -3 -20 -20
11 -1 12 14 10 14 7 11 -8 -20 -20 -4 7 -9 -20 -20 -20 -20 -20 -20 -20 -11 -20 -20 -20 -20 -20 -20 -20 -20 -20 -20 -20 -20 -20 -20 -20 -18 8 -8 -20 -12 -20 -20 -20 -20 -20
15 18 0 3 13 13 14 15 -16 -18 -14 -6 8 1 -19 -20 -20 -20 -20 13 8 -20 -20 -20 -20 -20 -20 -20 -20 -20 -20 -20 -20 -20 -20 -20 -20 -20 -20 -20 -20 -20 -20 -20 -20 -20 -20
8 27 20 -13 3 11 12 13 14 -17 -20 -17 17 8 -20 -18 -20 -20 -15 11 -20 -20 -20 -20 -20 -20 -20 -20 -20 -20 -20 -20 -20 -20 -20 -20 -20 -19 -19 -20 -20 -20 -20 -20 -20 -20 -1
-19 14 13 14 -15 -14 14 12 11 6 -12 6 15 11 -13 9 -4 -11 9 2 -20 -20 -20 -20 -20 -20 -20 -20 -20 -20 -20 -20 -20 -20 -20 -20 -20 -17 12 1 -20 -20 -20 -10 -20 -20 -20
14 16 17 -20 -18 -0 24 15 11 -20 -20 -7 19 19 -10 6 -8 11 -11 3 -20 -20 -20 -20 -20 -20 -20 -20 -20 -20 -20 -20 -20 -20 -20 -20 -20 8 6 -17 -20 -20 -20 -20 -20 -20 -20
9 -13 7 4 -20 -11 29 14 7 -7 -19 9 19 4 3 5 -17 -19 -20 -20 -20 -20 -20 -20 -20 -20 -20 -4 -4 -20 -20 -20 -20 -20 -18 -20 -20 -20 -16 -20 -20 -20 -20 10 -20 -20 -20
-1 -17 -20 -20 -20 10 33 -3 24 -20 -8 8 22 9 -6 -4 -20 -20 -20 -20 -20 -20 -20 -20 -20 -20 -20 -3 20 -20 -20 -20 -20 -20 -20 -20 -20 -20 -20 -20 -20 -20 -20 -20 -20 -20 -20
-1 1 -20 -10 18 23 30 17 22 19 -17 13 17 23 12 -5 -20 -20 -20 -20 -20 -20 -20 -20 -20 -20 -20 -9 15 11 -20 -20 -20 -20 -20 -20 -20 -20 -20 -20 -20 -20 -20 -20 -20 -20 -20
-1 7 -20 9 22 30 28 24 21 18 -6 20 15 14 -7 5 -8 -20 -20 -20 -20 -20 -20 -20 -20 -20 -20 -20 -20 -20 -20 -20 -20 -20 -20 -20 -20 -20 -20 -20 -20 -20 -20 -5 -20 -20 -20
-14 -8 -20 24 13 16 5 30 27 17 18 27 16 -9 11 1 -2 -20 -20 -20 -20 -20 -20 -20 -20 -20 -20 -20 -20 -20 -20 -20 -20 -20 -20 -20 -20 -20 -20 -20 -20 -20 -20 -20 -20 -20 -20
2 -3 13 15 -1 3 -7 30 20 13 27 31 13 -14 -17 2 -20 -20 -20 -20 -20 -20 -20 -20 -20 -20 -20 -20 -20 -20 -20 -20 -20 -20 -20 -20 -20 -20 -20 -20 -20 -20 -20 -20 -20 -20 -20
11 10 10 -20 -7 -18 8 25 6 16 26 25 8 -20 18 -5 -16 -20 -20 -20 -20 -20 -20 -20 -20 -12 -20 -20 -20 -20 -20 -20 -20 -9 -20 -20 -20 -20 -20 -20 -20 -20 -20 -20 -20 -20 -20
-20 -14 9 3 1 -20 15 27 6 6 25 32 19 19 27 3 -20 -20 -20 -20 -20 -20 -20 -20 -20 -20 -20 -20 9 28 11 -20 -17 -14 -20 11 -20 -20 -20 -20 -20 -20 -20 -20 -20 -20 -20
10 4 -20 16 12 -20 -5 27 3 -20 27 27 26 14 21 24 -19 -20 -20 -20 -20 1 -20 -20 -20 19 -20 -20 -20 -20 -20 -20 -20 -20 -20 -20 -20 -20 -20 -20 -20 -20 -20 -20 -20 -20 -20
-20 3 -3 17 1 -15 -0 16 16 -20 15 18 33 24 18 28 8 -20 -20 -20 -20 -7 -20 -20 -20 -1 -20 -3 -3 -20 -20 -20 -20 -20 -20 -20 -20 -20 -20 -20 -20 -20 -20 -20 -20 -20 -20
-15 16 18 31 25 28 27 -18 -10 -20 -14 16 27 -8 17 15 -20 -20 -20 -20 -20 -20 -20 -20 15 25 -16 18 -20 -20 -20 -20 -20 -20 -20 -20 -20 -20 -20 -20 -20 -20 -20 -20 -20 -20 -20
12 27 16 26 23 6 -20 -20 -20 -20 11 18 15 -11 20 30 8 26 -20 -20 -20 -20 -20 -20 -5 0 -20 -20 -19 -20 -20 1 -20 -20 -20 -20 -20 -20 -20 -20 -20 -20 -20 -20 -20 -20 -20

GFSGBSN_prec_radar_030.txt.gz
Reflectivity
-13 -7 -16 -20 -20 -20 -20 -20 5 -14 -20 -20 -20 -20 -20 -20 -20 -20 -20 -20 -20 -19 -20 -20 -20 -20 -20 -20 -20 -20 -20 -20 -20 -20 -20 -20 -20 -20 -20 -20 -20 -20 -20 -20 -20 -20 -20
-20 -20 -20 -20 -20 -20 -20 -20 -20 -7 -15 -20 -20 -20 -20 -20 -20 -20 -20 -20 -20 -20 -20 -20 -20 -20 -20 -20 -20 -20 -20 -20 -20 -20 -20 -20 -20 -20 -20 -20 -20 -20 -20 -20 -20 -11 -15
-20 -20 -20 -20 -20 -20 -20 -20 -20 -20 -14 10 -20 -20 -20 -20 -20 -20 -20 -20 -20 -20 -20 -20 -20 -20 -20 -20 -20 -20 -20 -20 -20 -20 -20 -20 -20 -20 -20 -20 -20 -20 -15 11 -20 -20 -20
-19 -17 -20 -20 -20 -20 -20 -20 -20 -20 -20 9 -6 -20 -20 -20 -20 -20 -20 -20 -20 -20 -20 -20 -20 -20 -20 -20 -20 -20 -20 -20 -20 -20 -20 -20 -20 -20 -20 -20 -20 -20 -20 -13 -20 -20 -20
-20 -18 -5 -20 -18 -5 1 -16 -20 -20 -20 -8 8 -20 -20 -20 -20 -20 -20 -20 -20 -20 -20 -20 -20 -20 -20 -20 -20 -20 -20 -20 -20 -20 -20 -20 -20 -20 -20 -20 -20 -20 -20 -20 -20 -13 -8
9 -20 -20 -17 -16 -17 11 -3 -20 -9 -3 -19 2 -20 -20 -20 -20 -20 -20 -20 -20 -20 -20 -20 -20 -20 -20 -20 -20 -20 -20 -20 -20 -20 -20 -20 -20 -20 -20 -20 -20 -20 -20 -20 -20 -20 -20
14 8 3 -6 5 -20 -20 -20 -20 -4 -5 5 2 13 -10 -10 -20 -20 -20 -20 -20 -20 -20 -20 -20 -20 -20 -20 -20 -20 -20 -20 -20 -20 -20 -20 -20 -20 -20 -20 -7 -3 -6 -20 -12 -20 -20
13 11 9 -3 1 5 -17 -20 -7 -18 -4 -18 -7 -3 9 -12 -20 -20 -20 -20 -20 -20 -20 -20 -20 -20 -20 -20 -20 -20 -20 -20 -20 -20 -20 -20 -20 -20 -20 9 -18 -18 -20 -20 -20 -20 -20
14 14 8 6 2 -2 8 -20 -20 -20 -20 -20 -20 7 9 1 -10 -20 -20 -20 -20 -20 -20 -20 -20 -20 -20 -20 -20 -20 -20 -20 -20 -20 -20 -20 -20 -20 -19 4 -20 -20 -20 -20 -20 -20 -20
11 14 15 12 7 2 -3 4 -20 -20 -20 -20 -14 9 1 -2 -3 -20 -20 -20 -20 -20 -20 -20 -20 -20 -20 -20 -20 -20 -20 -20 -20 -20 -20 -20 -20 -20 -20 -20 -20 -20 -20 -20 -20 -20 -20
20 13 9 12 16 8 -9 3 -20 -19 -20 -20 -2 12 9 -0 -0 -12 -20 -20 -20 -20 -20 -20 -20 -20 -20 -20 -20 -20 -20 -20 -20 -20 -20 -20 -20 -20 -20 -20 -20 -20 -20 -20 -20 -20 -20
15 21 2 10 12 11 7 -20 6 1 2 -20 5 13 -3 -11 10 0 -20 -20 -20 -20 -20 -20 -20 -20 -20 -20 -20 -20 -20 -20 -20 -20 -20 -20 -20 -20 -20 -20 -20 -20 -20 -20 -20 -20 -20
-3 23 21 7 5 10 11 -20 10 8 -14 -20 -19 17 0 -6 4 -9 -20 -20 -20 -20 -20 -20 -20 -20 -20 -20 -20 -20 -20 -20 -20 -20 -20 -20 -20 -20 -20 -20 -20 -20 -20 -20 -20 -20 -20
-17 -1 18 17 1 7 12 13 14 13 8 -20 4 16 11 -8 8 2 -20 1 -13 -20 -20 -20 -20 -20 -20 -20 -20 -20 -20 -20 -20 -20 -20 -20 -20 -20 -20 -20 -20 -20 -20 -20 -20 -20 -20
-20 -3 19 12 21 -12 7 15 15 17 14 8 8 11 22 3 3 -10 -19 8 -20 -20 -20 -20 -20 -20 -20 -20 -20 -20 -20 -20 -20 -20 -20 -20 -20 -20 -20 -20 -20 -20 -20 -20 -20 -20 -20
-20 -18 23 20 16 11 -15 -8 16 13 19 -17 16 7 -3 11 3 -10 -6 -20 -20 -20 -20 -20 -20 -20 -20 -20 -20 -20 -20 -20 -20 -20 -20 -20 -20 -20 -20 -20 -20 -20 -20 -20 -20 -20 -20
-20 -17 19 26 12 14 17 -20 5 19 17 -17 20 10 -12 -3 5 -7 -9 -1 -20 -20 -20 -20 -20 -20 -20 -20 -20 -20 -20 -20 -20 -20 -20 -10 -20 -20 -20 -20 1 -16 -20 -20 -20 -20 -20
-13 -2 16 17 -14 -19 12 14 -19 18 19 22 23 16 8 -17 16 -18 3 1 -20 -20 -20 -20 -20 -20 -20 -20 -20 -20 -20 -20 -20 -20 -20 -20 -20 -20 -20 -20 -20 -20 -20 -20 -20 -20 -20
-8 4 4 15 -12 -20 -8 2 -20 16 19 -11 21 11 12 -20 12 -20 -20 -18 -20 -20 -20 -20 -20 -20 -20 -20 -20 -20 -20 -20 -20 -20 -20 -20 -20 -20 -20 -20 -20 -20 -20 -20 -20 -20 -20
-1 7 13 11 15 8 -13 15 -20 10 16 21 20 19 19 16 -14 -20 -20 -20 -20 -20 -20 -20 -20 -20 -20 -20 -20 -20 -20 -20 -20 -20 -20 -20 -20 -20 -20 -20 -20 -20 -20 -20 -20 -20 -20
17 8 13 17 16 -20 4 -20 3 20 12 21 24 15 -10 19 -20 -19 -20 -20 -20 -20 -20 -20 -20 -20 -20 -20 -20 -20 -20 -20 -20 -20 -20 -20 -20 -20 -20 -20 -20 -20 -20 -20 -20 -20 -20
3 9 8 -14 13 -20 -20 -20 8 23 20 18 27 14 9 -20 -20 -20 -20 -20 -20 -20 -20 -20 -20 -20 -20 -20 -20 -20 -20 -20 -20 -20 -20 -20 -20 -20 -20 -20 -20 -20 -20 -20 -20 -20 -20
13 11 11 14 -20 -20 -16 4 15 23 30 29 26 -2 16 -20 -19 -12 -20 -20 -20 -17 -20 -20 -20 -20 -20 -20 -20 -20 -20 -20 -20 -20 -20 -20 -20 -20 -20 -20 -20 -20 -20 -20 -20 -20 -20
19 12 8 17 -20 -4 -20 1 15 18 38 21 20 19 19 -14 -2 -20 -20 -20 -20 -10 -20 -20 -20 -20 -20 -20 -20 -20 -20 -20 -20 -20 -20 -20 -20 -20 -20 -20 -20 -20 -20 -20 -20 -20 -20
8 10 4 -18 -20 -20 -11 14 15 27 33 11 18 28 20 12 -13 -11 -20 -20 -20 -20 -20 -20 -20 -20 -20 -20 -20 -20 -20 -20 -20 -20 -20 -18 9 -20 -20 -20 -20 -20 -20 -20 -20 -20 -20
5 3 -5 -20 -20 -20 -14 -20 21 32 20 1 35 29 22 21 -8 -0 -19 -20 -20 -20 -20 -20 -20 -18 -20 25 -20 -20 -20 -20 -20 -20 -20 -20 -20 -20 -20 -20 -20 -20 -20 -20 -20 -20 -20
-0 0 -20 -20 -20 -13 -6 -20 -20 2 11 -16 25 38 17 15 -17 -4 -6 -20 -20 -20 -20 -20 -20 -8 -7 -18 5 -20 -20 -20 -20 -20 -20 -20 -20 -20 -20 -20 -20 -20 -20 -20 -20 -20 -20
9 1 -2 -20 -6 -15 -20 -20 -20 -15 19 -18 14 31 20 15 -5 13 -20 -20 -20 -20 -20 -20 5 -20 17 -20 -20 -20 -20 -20 -20 -20 -20 -20 -20 -20 -20 -20 -20 -20 -20 -20 -20 -20 -20
8 -20 -19 -8 10 2 11 -16 -11 13 23 -18 -5 22 14 35 36 -9 -11 -20 -20 -20 -20 -20 -20 -20 -20 9 -20 -20 -20 -20 -20 -20 -20 -20 -20 -20 -20 -20 -20 -20 -20 -20 -20 -20 -20